Location: �chenoz-la-M�line
(47.6009°N, 6.1354°E)
Time: 13:00:07
(UTC+00:00)

USA 308 - Pass Details

Date: 27 January 2021
Orbit: 568 x 578 km, 54.0° (Epoch: 28 February)

Event Time Altitude Azimuth Distance (km) Brightness Sun altitude
Exits shadow 06:28:54 - 272° (W) 2,076 5.1 -6.9°
Reaches altitude 10° 06:29:27 10° 275° (W) 1,867 4.9 -6.8°
Maximum altitude 06:33:29 41° 346° (NNW) 834 3.5 -6.2°
Drops below altitude 10° 06:37:32 10° 57° (ENE) 1,873 6.1 -5.5°
Sets 06:39:53 0° 65° (ENE) 2,772 7.1 -5.2°
